Probability
68 61 52 48 39 23 13 10 0 0 0 3 29 45 52 55 52 42 35 74 100 100 100 100 100 100 100 100 100 100 100 100 100 100 100 100 100 100 100 100 100 100 100 100 97 97 97 100 100
52 35 39 45 32 13 10 6 0 3 3 6 10 35 58 71 65 68 71 90 100 97 100 100 100 100 100 100 100 100 100 100 100 100 100 100 100 100 100 100 100 100 100 100 97 97 100 100 97
13 19 39 45 29 13 6 3 3 3 6 10 29 45 65 65 81 77 84 97 97 97 100 100 100 100 100 100 100 100 100 100 100 100 100 100 100 100 100 100 100 100 100 97 97 90 97 97 97
19 26 32 23 23 13 3 0 3 3 13 23 48 55 58 65 87 87 87 97 97 97 97 100 100 100 100 100 100 100 100 100 100 100 100 100 100 100 100 100 100 100 100 97 97 90 90 90 97
16 19 32 13 13 3 3 3 6 10 19 23 45 45 58 81 81 84 90 94 94 97 100 100 100 100 100 100 100 100 100 100 100 100 100 100 100 100 100 100 100 97 97 97 90 90 90 87 90
16 6 6 0 0 3 0 3 16 16 26 39 45 45 58 77 74 87 87 94 94 97 100 100 100 100 100 100 100 100 100 100 100 100 100 100 100 100 100 100 100 94 90 90 87 90 94 90 87
10 0 0 0 3 3 6 6 19 23 32 29 45 52 58 65 81 84 81 90 94 97 97 97 97 100 100 100 100 100 100 100 100 100 100 100 100 100 100 100 100 97 94 90 84 84 87 90 94
3 0 0 0 3 3 6 10 23 32 35 32 52 58 58 45 68 81 84 87 90 94 94 94 97 97 97 100 100 100 100 100 100 100 100 100 100 100 100 100 100 97 100 97 94 94 97 97 97
0 0 0 0 3 3 10 10 16 29 32 45 58 61 55 52 65 77 77 81 90 94 94 90 94 97 97 97 97 100 100 100 100 100 100 100 97 100 100 100 100 100 100 97 100 100 100 100 97
0 0 0 0 3 3 6 13 10 29 45 42 52 52 48 58 65 68 77 74 81 81 81 90 90 90 90 90 94 94 94 90 94 90 94 87 84 87 94 94 97 97 97 100 100 100 97 87 68
0 0 0 0 10 6 13 19 23 39 45 48 45 55 55 55 61 65 71 77 81 81 84 87 87 87 87 90 87 84 87 87 84 84 77 68 61 74 74 74 81 84 87 84 87 77 68 58 42
0 0 3 6 10 10 10 19 32 48 52 42 52 55 55 52 61 58 65 71 77 77 84 87 87 87 81 87 81 77 71 71 61 61 65 52 39 42 48 52 55 48 52 45 48 45 39 35 42
0 0 6 6 10 10 16 19 26 42 48 58 61 55 55 52 52 48 61 61 65 71 81 84 77 77 68 68 71 61 58 61 55 52 48 42 29 29 26 32 23 29 16 16 23 29 26 23 29
0 0 3 6 13 13 16 23 16 32 42 55 55 52 48 42 45 58 55 58 65 65 68 65 68 71 55 35 39 39 39 35 32 32 32 26 23 23 23 16 13 16 16 19 6 10 10 10 3
0 0 0 3 6 10 13 16 16 19 29 35 42 45 42 39 48 48 52 58 58 55 55 55 55 45 39 35 32 23 26 23 26 32 32 23 19 13 10 10 10 3 3 3 6 3 3 3 3
0 0 0 0 3 3 6 10 13 16 23 29 39 39 39 45 39 48 55 52 58 55 58 61 55 39 32 29 32 29 19 13 10 19 6 16 3 3 10 6 3 3 3 3 0 0 0 0 0
0 0 0 0 0 0 6 6 16 6 10 16 23 26 35 42 42 45 48 55 55 45 35 29 35 29 26 23 19 6 6 6 6 10 10 0 0 0 0 0 0 3 3 3 3 0 0 0 0
0 0 0 0 0 0 0 10 6 10 10 13 26 23 29 35 35 39 39 45 45 35 32 29 29 26 23 13 13 3 3 0 3 6 0 0 0 0 0 0 0 0 0 0 0 0 0 0 0
0 0 0 0 3 3 3 6 6 10 13 16 19 26 26 32 35 39 39 48 45 29 29 29 32 16 16 10 16 0 0 0 0 0 0 0 0 0 0 0 0 0 0 0 0 0 0 0 0
0 0 0 0 3 3 3 3 6 6 13 23 19 29 26 32 39 39 39 48 35 29 23 32 26 19 13 13 3 0 0 0 0 0 0 0 0 0 0 0 0 0 0 0 0 0 0 0 0
0 0 0 0 0 3 3 3 3 10 19 16 16 13 26 29 32 42 45 39 39 39 35 26 23 19 10 10 0 0 0 0 0 0 0 0 0 0 0 0 0 0 0 0 0 0 0 0 0
0 0 0 0 0 0 0 0 0 3 3 16 10 16 23 29 35 35 32 29 39 42 39 29 26 16 13 0 3 3 0 0 0 0 0 0 0 0 0 0 0 0 0 0 0 0 0 0 0
0 0 0 0 0 0 0 0 0 0 3 3 6 13 23 32 26 29 19 23 45 48 35 23 16 19 6 6 3 0 0 0 0 0 0 0 0 0 0 0 0 0 0 0 0 0 0 0 0
0 0 0 0 0 0 0 0 0 0 0 6 6 13 23 23 26 23 19 23 39 39 23 16 16 13 0 3 0 0 0 0 0 0 0 0 0 0 0 0 0 0 0 0 0 0 0 0 0
0 0 0 0 0 0 0 0 0 0 0 6 10 19 19 19 23 6 6 6 13 16 16 13 3 3 3 3 0 0 0 0 0 0 0 0 0 0 0 0 0 0 0 0 0 0 0 0 0
0 0 0 0 0 0 0 0 0 0 0 3 10 13 16 10 13 3 0 3 13 16 16 10 3 3 3 0 0 0 0 0 0 0 0 0 0 0 0 0 0 0 0 0 0 0 0 0 0
0 0 0 0 0 0 0 0 0 0 3 6 13 13 6 10 0 3 0 3 19 13 6 6 3 3 0 0 0 0 0 3 3 0 0 0 0 0 0 0 0 0 0 0 0 0 0 0 0
0 0 0 0 0 0 0 0 0 0 3 3 6 6 6 3 3 0 0 6 10 3 6 10 3 3 0 0 0 0 0 3 3 0 0 0 0 0 0 0 0 0 0 0 0 0 0 0 0
0 0 0 0 0 0 0 0 0 0 0 6 6 3 3 3 3 3 3 6 6 3 6 6 3 3 0 0 0 3 3 3 3 0 0 0 0 0 0 0 0 0 0 0 0 0 0 0 0
0 0 0 0 0 0 0 0 0 0 0 0 0 3 0 0 3 3 3 3 3 0 6 3 0 0 0 3 3 3 3 3 3 0 0 0 0 0 0 0 0 0 0 0 0 0 0 0 0
Height
5928 5927 5926 5926 5926 5925 5923 5921 5919 5917 5917 5915 5915 5914 5914 5915 5916 5917 5914 5912 5912 5911 5911 5911 5911 5912 5912 5912 5912 5912 5912 5912 5911 5911 5911 5911 5911 5910 5910 5909 5909 5908 5908 5907 5907 5906 5906 5906 5906
5926 5925 5925 5924 5924 5923 5922 5921 5918 5917 5915 5913 5912 5913 5913 5914 5913 5912 5911 5911 5911 5910 5910 5911 5911 5911 5911 5911 5911 5911 5911 5911 5911 5911 5911 5911 5910 5910 5909 5909 5909 5908 5907 5907 5906 5906 5906 5906 5906
5925 5923 5923 5923 5921 5920 5919 5918 5916 5915 5914 5912 5912 5911 5911 5912 5910 5910 5909 5909 5909 5909 5910 5910 5909 5910 5910 5910 5910 5910 5910 5910 5910 5910 5910 5910 5910 5909 5909 5908 5908 5907 5907 5906 5906 5905 5905 5905 5905
5923 5922 5921 5922 5920 5918 5916 5915 5914 5913 5911 5910 5911 5910 5909 5909 5908 5908 5907 5906 5907 5908 5908 5908 5908 5908 5908 5909 5909 5909 5909 5909 5909 5909 5909 5909 5908 5908 5908 5908 5907 5907 5906 5905 5905 5904 5904 5904 5904
5920 5920 5920 5919 5918 5915 5913 5912 5911 5910 5909 5907 5908 5907 5907 5907 5906 5905 5904 5904 5905 5906 5906 5907 5907 5907 5907 5907 5907 5907 5907 5907 5907 5907 5907 5907 5907 5907 5907 5906 5906 5905 5905 5904 5904 5903 5903 5903 5903
5918 5918 5918 5917 5915 5913 5910 5908 5907 5907 5906 5905 5905 5904 5903 5904 5904 5902 5902 5903 5904 5905 5905 5905 5905 5905 5905 5905 5905 5905 5905 5905 5905 5905 5905 5905 5905 5905 5905 5904 5904 5904 5903 5903 5902 5902 5901 5901 5901
5916 5915 5914 5914 5912 5910 5908 5906 5904 5904 5903 5902 5901 5901 5901 5901 5901 5899 5899 5900 5901 5903 5903 5903 5903 5903 5903 5903 5903 5903 5903 5903 5903 5903 5903 5902 5902 5902 5902 5902 5901 5901 5901 5900 5900 5900 5899 5899 5899
5912 5913 5911 5910 5909 5908 5906 5903 5902 5901 5899 5899 5898 5898 5898 5897 5897 5896 5896 5896 5897 5899 5900 5901 5901 5901 5900 5900 5900 5900 5900 5900 5900 5900 5900 5900 5900 5899 5899 5898 5898 5898 5898 5898 5897 5897 5897 5897 5897
5910 5910 5908 5907 5907 5905 5903 5901 5900 5898 5896 5896 5895 5894 5892 5893 5893 5892 5892 5892 5894 5895 5897 5897 5898 5897 5897 5897 5897 5897 5897 5897 5897 5897 5897 5897 5896 5896 5895 5895 5895 5895 5895 5895 5894 5894 5894 5894 5894
5907 5907 5906 5905 5904 5902 5900 5899 5897 5895 5894 5893 5891 5889 5888 5888 5889 5888 5888 5888 5891 5893 5893 5894 5894 5894 5894 5894 5894 5894 5894 5894 5894 5894 5893 5893 5892 5892 5891 5891 5891 5891 5891 5891 5890 5890 5890 5890 5890
5904 5904 5903 5901 5901 5900 5898 5896 5894 5892 5890 5889 5887 5885 5883 5882 5884 5886 5886 5886 5887 5889 5890 5891 5891 5891 5891 5891 5891 5891 5890 5890 5890 5890 5890 5889 5888 5888 5888 5887 5887 5887 5887 5887 5886 5886 5886 5887 5887
5902 5901 5900 5898 5897 5896 5895 5893 5891 5888 5886 5884 5882 5880 5878 5878 5878 5881 5882 5882 5884 5885 5886 5887 5887 5888 5888 5888 5888 5887 5887 5887 5887 5886 5886 5885 5884 5884 5884 5883 5883 5883 5883 5883 5883 5883 5883 5883 5883
5900 5899 5897 5896 5895 5893 5891 5889 5886 5883 5880 5878 5875 5873 5871 5873 5874 5875 5877 5878 5880 5882 5882 5884 5885 5885 5884 5884 5884 5884 5884 5883 5883 5883 5882 5882 5881 5881 5880 5880 5880 5879 5879 5880 5880 5880 5879 5879 5879
5899 5897 5895 5894 5892 5890 5888 5885 5882 5877 5875 5873 5870 5868 5868 5869 5870 5872 5873 5875 5877 5878 5879 5881 5882 5882 5882 5882 5882 5881 5881 5881 5880 5879 5879 5879 5878 5877 5877 5876 5876 5876 5876 5876 5876 5876 5876 5876 5875
5897 5896 5894 5892 5890 5888 5886 5882 5877 5874 5871 5868 5866 5864 5863 5864 5866 5868 5870 5872 5873 5875 5877 5878 5879 5880 5880 5880 5879 5879 5878 5877 5877 5877 5876 5875 5875 5874 5873 5873 5873 5872 5872 5872 5872 5872 5872 5872 5872
5895 5894 5892 5890 5888 5886 5884 5879 5873 5870 5867 5864 5861 5860 5860 5861 5863 5864 5867 5869 5872 5873 5874 5875 5876 5877 5877 5877 5876 5876 5875 5875 5874 5874 5873 5873 5872 5871 5870 5870 5869 5869 5868 5868 5868 5868 5868 5868 5868
5892 5891 5889 5888 5885 5883 5880 5876 5872 5868 5864 5862 5859 5857 5858 5859 5862 5863 5864 5867 5869 5871 5872 5873 5874 5874 5875 5875 5874 5873 5873 5872 5872 5871 5871 5870 5869 5868 5868 5867 5866 5865 5865 5864 5864 5864 5864 5863 5863
5890 5888 5887 5885 5883 5881 5878 5875 5871 5867 5864 5861 5859 5856 5857 5858 5861 5862 5864 5866 5868 5869 5871 5871 5872 5873 5873 5873 5872 5872 5871 5870 5870 5869 5868 5867 5866 5865 5865 5864 5863 5862 5861 5861 5860 5859 5859 5858 5858
5888 5886 5885 5883 5881 5879 5876 5874 5871 5867 5863 5861 5859 5858 5858 5858 5861 5862 5864 5866 5867 5869 5869 5870 5871 5871 5871 5871 5871 5871 5870 5869 5868 5867 5866 5865 5864 5863 5862 5861 5860 5858 5857 5856 5856 5855 5854 5853 5853
5887 5885 5883 5881 5879 5876 5874 5872 5870 5867 5864 5862 5860 5860 5860 5860 5861 5862 5863 5865 5866 5867 5869 5870 5870 5870 5870 5870 5870 5869 5868 5867 5866 5865 5864 5862 5861 5860 5858 5857 5856 5855 5853 5852 5851 5850 5848 5847 5847
5885 5884 5882 5880 5877 5875 5873 5871 5869 5867 5864 5862 5861 5861 5861 5861 5862 5862 5863 5865 5866 5867 5868 5868 5868 5869 5868 5868 5868 5867 5866 5865 5864 5862 5861 5860 5858 5856 5855 5854 5852 5851 5849 5848 5846 5844 5843 5842 5841
5883 5882 5881 5879 5877 5874 5873 5870 5868 5865 5864 5863 5862 5862 5861 5862 5863 5863 5864 5865 5866 5867 5867 5867 5868 5867 5867 5867 5866 5865 5864 5863 5862 5860 5859 5857 5856 5854 5852 5851 5849 5847 5845 5843 5841 5839 5838 5836 5834
5880 5880 5879 5878 5876 5874 5872 5870 5868 5865 5864 5862 5861 5862 5862 5862 5862 5863 5864 5865 5866 5866 5866 5866 5866 5866 5866 5865 5864 5863 5862 5861 5860 5858 5857 5855 5853 5851 5849 5847 5845 5843 5841 5838 5836 5834 5832 5830 5829
5878 5877 5877 5876 5874 5873 5871 5870 5868 5865 5864 5863 5862 5862 5862 5863 5863 5863 5864 5865 5865 5866 5866 5866 5865 5865 5864 5863 5862 5861 5860 5859 5857 5856 5854 5853 5851 5849 5846 5844 5841 5839 5836 5833 5831 5829 5826 5824 5822
5876 5876 5874 5873 5872 5871 5870 5868 5868 5865 5864 5863 5863 5863 5863 5863 5864 5864 5864 5864 5865 5865 5865 5865 5864 5863 5862 5861 5860 5859 5858 5857 5855 5854 5852 5850 5848 5845 5843 5840 5837 5834 5831 5828 5825 5822 5820 5818 5815
5874 5873 5873 5871 5870 5869 5869 5867 5867 5865 5863 5863 5862 5863 5863 5863 5864 5864 5864 5864 5864 5864 5864 5863 5863 5862 5860 5859 5858 5857 5856 5854 5853 5851 5849 5847 5844 5842 5839 5836 5832 5829 5826 5822 5819 5816 5813 5810 5808
5871 5871 5870 5869 5868 5868 5867 5867 5866 5864 5863 5862 5862 5863 5863 5863 5863 5863 5863 5863 5862 5862 5862 5861 5861 5860 5859 5858 5856 5855 5853 5852 5850 5848 5846 5843 5841 5838 5834 5831 5827 5824 5820 5816 5813 5809 5806 5802 5799
5869 5868 5868 5867 5865 5865 5866 5865 5865 5863 5863 5862 5862 5861 5862 5862 5861 5861 5861 5861 5861 5860 5860 5859 5859 5858 5856 5855 5854 5853 5851 5849 5847 5845 5842 5839 5836 5833 5830 5826 5822 5818 5814 5810 5806 5802 5798 5794 5790
5866 5865 5864 5863 5863 5863 5862 5865 5863 5862 5862 5861 5861 5860 5860 5860 5860 5860 5860 5860 5859 5859 5858 5857 5856 5855 5854 5853 5851 5850 5848 5846 5844 5841 5839 5836 5832 5829 5825 5821 5817 5812 5808 5803 5799 5794 5790 5786 5782
5861 5861 5860 5861 5860 5860 5859 5863 5860 5860 5859 5859 5859 5859 5858 5858 5858 5858 5858 5857 5857 5857 5856 5855 5854 5853 5852 5850 5849 5847 5845 5843 5841 5838 5835 5832 5828 5824 5820 5816 5811 5806 5801 5796 5791 5787 5782 5777 5773
Wind_Speed
8 7 7 6 5 5 4 6 5 5 6 8 9 10 11 10 9 6 4 2 2 2 2 2 2 2 2 2 2 2 2 3 4 5 5 5 5 6 6 6 6 6 6 5 5 5 5 4 4
10 10 9 8 7 6 5 6 5 7 9 9 10 11 12 11 9 6 4 3 2 2 3 3 3 3 2 2 3 2 3 3 4 5 5 5 6 6 6 6 6 6 6 6 6 6 5 5 4
12 12 11 9 8 8 9 7 8 11 12 13 14 14 12 12 10 7 5 4 2 2 3 3 3 3 3 3 3 3 4 4 4 5 6 6 6 7 7 7 7 8 8 8 7 7 6 6 5
14 13 12 10 8 9 10 10 11 13 15 15 17 18 16 13 11 8 6 4 3 3 3 4 4 4 4 4 4 4 4 5 5 5 6 7 7 7 8 8 8 9 9 9 9 8 8 7 6
16 15 13 11 10 11 12 13 14 17 19 19 19 19 18 16 13 10 6 3 3 3 4 4 4 4 5 5 4 5 5 6 6 6 7 8 8 8 9 9 10 10 10 10 10 10 9 8 7
16 15 13 11 10 11 13 15 17 20 20 21 19 20 18 17 15 12 7 4 4 4 4 5 5 5 6 6 6 6 6 7 7 8 8 9 10 10 10 10 11 11 11 12 12 11 10 9 9
15 15 13 12 11 12 13 15 18 20 22 22 22 23 22 18 14 12 9 6 6 5 5 6 6 6 6 7 8 7 8 8 9 10 10 10 11 11 12 12 13 13 13 13 13 12 12 11 11
14 14 13 13 13 14 14 16 19 22 24 26 25 25 23 17 14 12 10 8 7 6 5 6 7 7 8 8 9 9 10 10 11 11 12 12 13 14 14 14 14 15 15 15 15 15 14 13 12
13 13 13 14 15 15 16 17 21 24 25 27 27 27 24 19 15 14 10 8 6 6 6 6 7 8 9 9 10 11 12 12 13 13 14 14 15 15 15 16 17 16 16 16 16 16 16 15 14
11 11 12 12 13 14 16 18 20 24 26 27 28 28 26 21 18 14 11 9 8 7 7 8 8 9 10 11 12 13 13 13 14 14 14 14 15 16 16 17 18 17 17 17 17 17 17 17 16
10 10 11 12 12 13 14 16 19 23 24 26 27 28 26 21 17 14 13 12 10 8 7 8 7 8 10 11 12 13 14 14 15 15 15 15 16 16 16 16 16 16 16 16 17 17 17 17 17
10 10 10 11 12 12 14 16 19 22 24 25 26 27 23 20 19 15 13 11 10 9 8 7 8 8 9 10 12 12 13 14 14 14 14 14 15 15 16 15 16 15 15 15 15 15 16 16 16
8 8 9 11 11 13 15 17 19 22 23 24 24 23 18 15 15 14 12 11 11 11 9 8 8 9 8 9 11 12 12 12 13 13 14 14 15 15 14 14 14 15 15 15 15 15 15 16 16
7 8 8 10 12 14 15 18 19 21 21 21 21 20 17 15 13 12 11 11 12 11 9 9 8 8 8 8 9 10 10 10 10 11 12 13 13 14 14 14 15 14 16 16 16 16 17 17 17
6 7 8 10 13 14 16 18 19 20 20 19 19 16 15 13 12 11 11 11 11 10 9 8 7 7 8 9 8 9 9 9 10 11 11 11 11 11 12 12 13 14 15 16 16 17 16 17 18
7 8 9 12 14 16 17 18 21 21 18 17 15 12 9 7 8 8 10 10 10 9 8 7 7 7 7 7 7 7 7 7 9 10 10 10 10 10 11 13 13 14 15 15 16 17 18 18 18
8 11 13 15 15 16 17 19 19 20 15 13 11 6 4 4 4 5 8 9 7 7 6 5 4 4 5 6 7 8 7 7 8 9 10 10 10 11 12 13 13 14 15 15 16 18 19 19 19
10 13 16 17 16 16 18 18 19 16 10 10 8 3 1 4 4 5 6 7 5 5 4 2 2 3 4 5 6 7 6 7 8 8 9 10 10 11 12 13 14 15 16 16 17 18 20 20 21
11 15 17 17 17 17 17 18 17 13 10 7 5 4 4 5 5 4 3 5 5 4 3 2 1 3 3 5 6 6 7 8 8 8 9 10 11 11 12 13 14 15 16 17 18 19 21 22 22
11 14 16 17 17 17 17 16 14 12 9 6 4 5 6 7 6 5 5 5 5 4 3 2 0 2 3 4 5 6 7 7 8 9 9 10 10 11 12 13 14 15 16 17 18 19 20 21 22
11 13 14 17 17 16 16 15 13 9 7 5 5 5 6 6 6 6 7 5 4 3 2 1 0 1 3 4 5 6 7 7 8 8 9 10 11 11 12 14 15 16 17 17 18 19 20 21 22
11 11 13 14 14 14 12 11 8 7 5 3 5 6 7 7 7 7 7 5 4 3 3 2 1 2 3 4 5 6 7 7 8 9 10 11 12 13 14 15 16 17 17 18 19 20 20 21 22
12 12 11 12 12 10 8 6 7 6 4 3 5 5 6 6 6 7 6 5 4 3 3 3 3 3 4 4 5 6 7 8 8 9 10 11 12 14 15 16 17 18 19 20 20 21 22 22 23
11 12 11 11 9 7 5 4 6 6 6 5 5 5 6 6 6 6 5 4 3 3 3 4 4 4 4 5 6 6 7 8 9 10 11 13 14 15 16 18 19 20 21 22 23 23 23 23 24
10 10 11 9 8 8 5 4 6 5 6 5 4 3 5 5 5 5 4 3 2 3 3 3 3 4 5 6 7 7 8 9 10 11 12 14 15 17 18 20 21 22 23 24 24 25 25 25 26
10 10 10 10 10 9 6 4 4 5 6 5 4 4 4 4 4 4 3 2 2 2 3 3 4 4 5 6 7 8 9 10 11 12 14 15 17 19 21 22 23 24 24 25 25 26 27 27 28
10 10 10 10 10 10 6 2 3 3 4 4 4 4 4 3 3 3 2 2 2 2 3 3 4 5 6 7 8 9 10 11 12 14 15 17 19 21 23 24 25 25 26 26 27 28 28 28 29
11 10 10 12 12 10 7 4 3 1 2 3 4 3 3 2 3 3 2 2 2 3 3 4 5 6 7 8 9 10 11 12 14 15 17 19 21 23 25 26 27 27 28 29 29 30 30 30 31
12 13 13 14 14 13 11 7 5 4 2 2 3 3 3 2 3 2 2 2 3 3 4 5 6 7 8 9 10 11 12 14 15 17 19 21 23 25 27 28 29 30 30 31 32 32 32 32 32
14 14 14 15 15 14 12 10 8 6 5 4 3 2 2 2 2 2 2 3 4 5 6 7 8 8 9 10 11 13 14 15 17 18 21 23 25 26 28 30 31 32 33 33 34 34 34 34 34
Wind_Direction
320 313 311 311 321 319 320 326 334 322 308 306 310 307 313 319 324 316 297 254 258 273 243 228 235 248 253 260 269 276 296 316 322 322 324 330 330 330 331 334 338 340 339 336 339 345 351 358 7
309 305 302 303 308 309 303 322 307 307 299 302 307 300 306 311 307 299 281 266 265 255 242 237 239 243 249 255 265 270 283 299 308 313 312 314 319 320 320 320 322 324 324 322 322 325 330 336 342
302 300 300 306 307 305 304 312 303 306 303 301 306 299 303 303 297 286 276 257 241 250 256 255 249 243 246 250 255 264 275 284 295 302 305 306 308 311 313 312 312 313 313 310 310 312 315 317 321
297 294 296 300 302 300 301 300 302 301 299 301 303 301 298 297 295 279 274 253 236 248 259 267 264 246 241 241 245 260 270 276 284 291 294 297 301 305 306 306 305 305 303 301 302 303 305 304 304
293 291 292 295 293 293 296 298 297 295 297 297 298 297 296 298 295 278 262 245 234 242 255 260 260 249 244 244 252 263 273 281 286 286 289 290 293 296 299 301 299 298 296 294 296 298 298 298 296
289 288 286 284 286 293 291 297 298 298 300 299 293 292 292 291 287 276 258 235 248 245 251 254 257 258 255 256 262 268 275 280 285 285 285 287 287 286 290 293 294 293 291 289 289 291 291 291 288
284 282 275 267 268 277 287 292 294 297 295 295 295 297 297 292 283 273 262 258 253 246 255 260 261 265 273 275 272 273 276 281 283 282 283 285 285 282 281 282 286 287 288 286 285 285 285 286 285
281 275 268 261 260 268 278 284 288 291 291 295 297 297 296 286 285 279 266 254 251 241 251 260 260 268 277 280 276 274 275 278 281 281 282 281 282 281 278 277 280 282 281 281 281 280 280 281 281
277 271 268 265 264 269 275 279 283 283 287 293 295 294 294 284 279 276 260 240 229 235 244 251 258 266 276 279 278 275 277 279 282 283 283 282 280 280 280 277 274 277 278 276 277 277 275 277 276
271 273 277 277 276 275 278 277 278 281 284 288 291 292 292 282 274 264 248 225 221 236 236 244 255 266 275 279 279 279 280 282 283 286 287 285 281 279 280 276 274 275 276 274 274 274 274 273 273
273 276 278 278 279 278 280 281 283 285 288 289 290 289 287 281 264 252 249 234 225 230 239 245 254 266 272 277 279 280 280 283 284 287 285 287 284 281 282 282 278 276 275 274 273 274 272 271 273
283 280 282 283 282 282 283 288 292 292 292 292 289 285 276 270 260 255 245 231 223 227 231 246 263 269 275 281 283 282 279 283 286 286 289 290 286 285 284 282 280 273 273 274 275 273 270 269 270
305 297 292 293 294 294 297 302 303 303 296 292 290 286 282 268 251 250 232 223 223 227 234 245 259 266 270 277 281 279 278 282 284 283 286 290 288 286 285 282 276 273 273 275 276 274 273 270 269
330 316 304 301 305 306 310 313 313 310 303 296 294 289 278 253 241 243 231 228 223 228 240 251 251 266 270 275 281 277 276 279 284 286 289 291 286 286 282 279 279 277 275 273 273 274 274 268 267
339 327 314 324 326 323 322 318 316 312 311 301 296 294 275 253 245 237 232 233 227 230 233 241 249 268 275 280 281 284 278 279 284 290 295 294 293 291 284 282 284 279 274 271 271 274 274 272 269
329 337 333 334 337 335 329 326 321 317 312 305 298 288 272 240 225 224 218 221 225 231 227 231 242 259 280 289 302 304 294 289 288 292 296 296 297 296 291 288 287 282 278 274 272 272 273 272 270
330 337 335 333 334 334 330 327 326 324 318 320 310 287 245 213 204 198 199 203 205 209 212 226 232 268 293 304 309 312 304 299 298 299 299 300 300 298 294 292 290 287 284 280 275 274 274 273 273
337 337 333 329 330 330 330 329 331 334 332 334 334 332 92 156 173 177 188 198 196 197 203 208 263 286 296 307 313 323 321 315 312 309 309 308 306 301 299 295 290 289 287 284 280 278 276 274 273
334 328 326 326 327 326 330 333 337 343 346 351 22 53 81 116 124 125 159 178 169 175 174 184 252 297 310 314 314 321 322 318 314 313 313 311 310 307 304 299 296 294 291 288 284 281 278 275 274
322 319 323 326 328 328 327 329 334 340 353 14 62 70 76 90 96 102 114 130 137 148 150 169 248 324 325 319 318 321 323 321 317 316 317 315 311 310 308 307 305 303 300 295 291 287 284 280 277
307 315 322 325 327 326 325 324 329 344 353 24 65 78 85 94 98 103 109 110 103 103 116 133 67 0 338 332 334 336 334 330 329 328 326 327 325 320 317 313 311 309 307 303 298 294 289 286 282
305 312 321 326 324 326 330 333 336 347 3 34 63 80 99 104 105 108 110 112 104 91 75 67 39 12 357 351 347 345 342 341 338 335 334 334 333 329 324 320 318 316 312 308 304 300 295 291 288
297 302 312 320 323 321 340 3 17 30 43 51 70 75 93 100 103 105 109 111 103 75 46 34 29 10 2 357 354 353 348 344 343 341 340 339 336 333 328 324 321 318 315 312 308 303 298 295 292
293 294 304 316 322 314 331 8 32 43 54 57 71 74 95 99 100 103 100 98 79 44 28 17 11 5 3 3 3 358 351 347 345 344 343 341 338 336 332 328 324 320 317 314 310 306 302 298 294
286 291 296 304 308 312 323 356 17 40 52 61 81 87 103 103 100 95 89 85 67 45 26 15 8 2 3 4 2 357 352 349 347 345 343 340 338 337 334 331 326 322 318 314 311 308 304 300 295
284 284 292 299 304 308 315 355 11 32 48 54 81 104 99 97 95 94 89 76 58 36 17 7 6 6 4 358 354 353 350 347 345 343 341 341 340 338 335 332 329 325 322 318 314 311 306 302 298
288 280 286 290 293 300 303 340 349 12 45 51 83 104 88 84 91 93 83 71 51 28 12 6 360 359 356 350 347 347 345 344 342 340 340 339 338 337 335 333 330 327 324 321 318 314 310 305 301
279 274 272 275 279 286 284 292 321 339 9 58 77 89 80 67 72 78 67 57 37 14 0 351 347 348 347 346 345 343 341 339 337 337 336 336 335 334 333 332 331 328 325 322 319 317 313 308 304
275 272 267 266 269 276 273 282 284 283 315 7 51 81 79 69 66 60 44 25 8 355 344 339 338 337 337 338 336 334 334 333 332 332 332 332 331 331 331 331 329 327 326 323 320 318 315 311 306
270 273 264 261 263 266 267 274 278 290 299 311 335 7 39 48 35 2 348 341 336 331 329 331 330 327 328 328 326 325 325 326 327 326 327 328 328 329 330 330 328 326 325 323 322 319 316 312 308